Location: *
(50.8333°N, 12.9167°E)
Time: 06:26:22
(UTC+00:00)

Daily predictions for brighter satellites

Satellite Brightness Start Highest point End
(mag) Time Altitude Azimuth Time Altitude Azimuth Time Altitude Azimuth
MONITOR-E 3.9 18:23:58 10° SSE 18:26:33 55° ENE 18:29:09 10° N
STARLINK-1244 3.9 18:22:56 10° WNW 18:27:04 67° N 18:31:12 10° E
NOSS 3-4 (A) 3.9 18:21:38 10° NW 18:28:33 89° SW 18:36:13 10° SE
NOSS 3-4 (C) 3.9 18:21:45 10° NW 18:28:40 90° SW 18:36:19 10° SE
Cosmos 1980 Rocket 4.4 18:27:07 10° N 18:29:34 13° NNE 18:32:02 10° NE
STARLINK-1201 3.0 18:27:03 10° WNW 18:30:19 84° NNE 18:33:35 10° ESE
SL-08 RB Rocket 3.9 18:27:27 10° SSE 18:31:54 55° ENE 18:36:26 10° N
STARLINK-1138 3.8 18:27:55 10° WNW 18:32:04 69° N 18:36:12 10° E
Cosmos 1437 3.2 18:29:54 10° NNW 18:32:54 58° W 18:35:51 10° S
Cosmos 1818 3.6 18:28:03 10° SSW 18:33:27 71° SE 18:38:54 10° NE
STARLINK-1228 2.7 18:30:47 10° WNW 18:33:34 70° SSW 18:36:17 10° ESE
CZ-4C R/B 4.0 18:30:01 10° NW 18:35:34 30° NNE 18:41:59 10° ENE
STARLINK-1143 3.8 18:32:53 10° WNW 18:37:02 70° N 18:41:11 10° E
Cosmos 1603 3.9 18:33:04 10° SSW 18:38:42 78° WNW 18:44:21 10° NNE
ATLAS CENTAUR R/B 3.6 18:36:53 10° NNW 18:39:12 15° NNE 18:41:27 10° NE
NOSS 3-3 (A) 4.2 18:33:22 10° SW 18:39:23 81° NW 18:46:16 10° NE
NOSS 3-3 (C) 4.2 18:33:28 10° SW 18:39:29 82° NW 18:46:21 10° NE
Cosmos 2184 Rocket 4.1 18:34:27 10° N 18:40:48 85° W 18:47:00 10° S
ATLAS 5 CENTAUR R/B 2.2 18:37:35 10° S 18:41:18 31° ESE 18:45:24 10° ENE
Cosmos 2058 Rocket 3.7 18:37:12 10° SSE 18:41:20 37° E 18:45:29 10° NNE
STARLINK-1241 3.8 18:37:55 10° WNW 18:42:04 72° NNE 18:46:07 11° E
STARLINK-52 4.5 18:41:13 10° S 18:43:35 19° SE 18:45:37 12° E
Cosmos 1726 Rocket 3.6 18:42:17 10° S 18:46:38 61° E 18:51:03 10° NNE
STARLINK-1239 3.7 18:42:52 10° WNW 18:47:01 74° NNE 18:50:52 12° E
Meteor 2-17 Rocket 4.5 18:43:14 10° N 18:49:25 76° ENE 18:55:34 10° SSE
Aureole 1 Rocket 4.1 18:43:19 10° S 18:50:31 61° ESE 18:56:07 10° NNE
FREGAT/IRIS 3.3 18:48:55 10° S 18:51:35 49° W 18:54:15 10° NNW
SJ-6B 3.0 18:47:38 10° SSE 18:51:47 85° W 18:55:56 10° NNW
Cosmos 1825 Rocket 4.1 18:47:27 10° NNW 18:51:48 61° W 18:56:05 10° S
Meteor 1-16 Rocket 4.2 18:46:33 10° S 18:52:00 89° W 18:57:40 10° NNE
STARLINK-1240 3.7 18:47:51 10° WNW 18:52:01 76° NNE 18:55:39 13° E
Cosmos 921 Rocket 3.0 18:48:58 10° NNW 18:53:09 62° ENE 18:57:17 10° SSE
H-2A R/B 2.6 18:50:42 10° S 18:55:49 61° WSW 19:00:51 10° NNW
STARLINK-1216 3.7 18:52:51 10° WNW 18:57:01 78° NNE 19:00:26 15° E
Cosmos 1461 3.3 18:52:40 10° NW 18:57:10 71° SW 19:01:45 10° SSE
USA 234 4.4 18:53:06 10° E 18:57:35 19° ESE 19:02:03 10° SSE
Resurs 01 Rocket 2.1 18:54:20 11° SE 18:58:21 44° ENE 19:02:34 10° N
SeaSat 1 3.2 18:55:37 10° NNE 19:00:29 59° NW 19:05:19 10° SW
ATLAS 2AS CENTAUR R/B 3.3 18:53:14 10° NW 19:00:45 62° SW 19:07:38 10° SSE
Cosmos 2228 3.1 18:57:09 10° SSW 19:01:28 84° W 19:05:52 10° N
Nadezhda 1 Rocket 4.0 18:55:16 10° S 19:01:38 78° E 19:07:58 10° NNE
STARLINK-1237 3.6 18:57:48 10° WNW 19:01:59 80° NNE 19:05:12 16° ESE
Cosmos 2154 Rocket 4.1 18:57:12 10° N 19:03:37 88° W 19:09:57 10° S
Cosmos 1300 3.5 19:00:29 10° SSE 19:03:53 31° E 19:07:18 10° NNE
SL-8 Rocket 4.4 18:58:21 10° N 19:04:25 46° ENE 19:09:51 13° SE
CZ-2C R/B 3.6 18:59:54 10° S 19:04:39 55° W 19:09:20 10° NNW
STARLINK-1202 3.6 19:02:49 10° WNW 19:07:00 83° NNE 19:10:01 18° ESE
USA 186 3.4 19:04:57 10° SSW 19:07:59 35° W 19:10:55 10° NNW
Ariane Rocket 4.3 19:06:17 10° SSW 19:11:01 40° W 19:15:48 10° NNW
BREEZE M DEB (TANK) 4.1 19:03:29 10° SW 19:12:25 42° SSE 19:14:50 18° E
Cosmos 1140 Rocket 3.5 19:07:25 10° S 19:12:32 61° ESE 19:17:37 10° NNE
RESURS DK-1 4.0 19:10:17 10° N 19:13:36 22° NE 19:15:51 15° E
Cosmos 1953 Rocket 4.4 19:09:47 10° NNW 19:14:10 54° W 19:18:32 10° S
SL-4 R/B 1.4 19:10:53 10° WSW 19:14:17 74° SSE 19:16:52 17° E
Cosmos 2058 3.8 19:12:16 10° N 19:15:58 31° ENE 19:17:51 21° ESE
STARLINK-1234 3.6 19:13:51 10° W 19:16:40 38° SSW 19:18:03 23° SSE
Cosmos 1606 Rocket 4.3 19:12:30 10° SSW 19:16:53 57° WNW 19:21:19 10° N
STARLINK-1246 3.6 19:12:45 10° WNW 19:16:56 88° NNE 19:19:33 22° ESE
STARLINK-1209 3.7 19:14:29 10° W 19:17:15 36° SSW 19:18:37 22° SSE
Cosmos 2366 rocket 4.4 19:12:02 10° N 19:17:55 45° ENE 19:22:16 18° SE
Cosmos 1340 Rocket 2.7 19:14:07 10° S 19:18:10 83° E 19:22:12 10° NNE
STARLINK-1233 3.4 19:17:47 10° WNW 19:20:50 48° SSW 19:22:13 26° SSE
STARLINK-1203 3.6 19:16:40 10° WNW 19:20:53 86° SSW 19:23:24 24° ESE
STARLINK-1212 3.4 19:18:13 10° WNW 19:21:15 47° SSW 19:22:37 27° SSE
STARLINK-1105 3.4 19:18:40 10° WNW 19:21:42 47° SSW 19:23:04 27° SSE
STARLINK-1224 3.6 19:17:45 10° WNW 19:21:56 88° SSW 19:24:21 24° ESE
STARLINK-1206 3.4 19:19:09 10° WNW 19:22:11 46° SSW 19:23:29 27° SSE
STARLINK-1247 3.4 19:19:37 10° WNW 19:22:37 46° SSW 19:23:55 27° SSE
Cosmos 614 Rocket 4.2 19:17:28 10° SSW 19:22:42 75° WNW 19:27:56 10° NNE
Cosmos 1190 Rocket 4.0 19:17:24 10° SSW 19:22:42 82° ESE 19:28:01 10° NNE
Spot 2 Rocket 4.0 19:19:28 19° SE 19:22:47 45° ENE 19:27:37 10° N
STARLINK-1227 3.5 19:20:01 10° WNW 19:23:04 46° SSW 19:24:22 27° SSE
STARLINK-1218 3.5 19:20:30 10° WNW 19:23:31 45° SSW 19:24:47 28° SSE
STARLINK-1226 3.5 19:20:56 10° WNW 19:23:57 45° SSW 19:25:13 28° SSE
STARLINK-1254 3.5 19:21:22 10° WNW 19:24:24 45° SSW 19:25:40 28° SSE
Cosmos 1908 4.1 19:21:01 10° SSW 19:24:48 53° WNW 19:28:39 10° N
STARLINK-1215 3.5 19:21:52 10° WNW 19:24:52 45° SSW 19:26:06 28° SSE
STARLINK-1231 3.5 19:22:19 10° WNW 19:25:19 44° SSW 19:26:31 28° SSE
ERBS 2.3 19:21:57 10° WNW 19:25:20 70° NNE 19:26:51 30° ESE
STARLINK-1232 3.5 19:23:13 10° WNW 19:26:14 44° SSW 19:27:24 29° SSE
STARLINK-1217 3.5 19:23:39 10° WNW 19:26:40 43° SSW 19:27:49 29° SSE
COSMOS 2406 4.4 19:26:20 20° ESE 19:26:52 20° E 19:30:57 10° NE
STARLINK-1225 3.6 19:22:45 10° WNW 19:26:55 85° SSW 19:29:09 26° ESE
STARLINK-1208 3.6 19:24:06 10° WNW 19:27:07 43° SSW 19:28:17 29° SSE
STARLINK-1229 3.6 19:24:35 10° WNW 19:27:35 43° SSW 19:28:41 29° SSE
STARLINK-1271 3.6 19:25:01 10° WNW 19:28:01 42° SSW 19:29:07 29° SSE
STARLINK-1270 3.6 19:25:29 10° WNW 19:28:28 42° SSW 19:29:33 29° SSE
STARLINK-1154 3.6 19:25:55 10° WNW 19:28:55 42° SSW 19:29:59 29° SSE
STARLINK-1197 3.6 19:26:51 10° WNW 19:29:50 41° SSW 19:30:52 30° SSE
STARLINK-1189 3.6 19:27:17 10° WNW 19:30:15 41° SSW 19:31:17 30° SSE
STARLINK-1198 3.6 19:27:46 10° WNW 19:30:43 41° SSW 19:31:44 30° SSE
STARLINK-1188 3.7 19:28:10 10° WNW 19:31:08 40° SSW 19:32:08 30° SSE
SL-24 R/B 4.0 19:27:05 10° N 19:31:13 74° WNW 19:34:57 10° SSW
STARLINK-1235 4.0 19:28:54 10° W 19:31:48 34° SSW 19:32:51 26° S
STARLINK-1230 3.6 19:27:43 10° WNW 19:31:53 82° SSW 19:33:55 29° ESE
STARLINK-1187 3.9 19:29:17 10° W 19:32:15 37° SSW 19:33:16 28° S
DMSP B5D2-2 4.0 19:27:00 10° NNE 19:32:16 78° ESE 19:37:30 10° S
Cosmos 1076 Rocket 3.8 19:28:11 10° N 19:32:21 47° ENE 19:34:16 27° SE
STARLINK-1199 3.7 19:30:08 10° WNW 19:33:07 39° SSW 19:34:04 30° SSE
STARLINK-1191 3.7 19:30:35 10° WNW 19:33:34 39° SSW 19:34:30 30° SSE
STARLINK-1210 3.7 19:31:02 10° WNW 19:34:00 39° SSW 19:34:56 30° S
STARLINK-1221 3.7 19:31:31 10° WNW 19:34:29 39° SSW 19:35:23 30° S
STARLINK-1219 3.8 19:31:57 10° W 19:34:55 38° SSW 19:35:49 30° S
STARLINK-1222 3.8 19:32:25 10° W 19:35:22 38° SSW 19:36:15 30° S
STARLINK-1211 3.8 19:32:52 10° W 19:35:50 38° SSW 19:36:42 31° S
STARLINK-1214 3.8 19:33:18 10° W 19:36:16 38° SSW 19:37:06 31° S
Abrixas rocket 3.2 19:33:50 10° W 19:36:25 27° SSW 19:36:49 26° S
STARLINK-1245 3.8 19:33:48 10° W 19:36:44 37° SSW 19:37:32 31° S
STARLINK-1243 3.6 19:32:41 10° WNW 19:36:51 78° SSW 19:38:42 32° ESE
Cosmos 1408 3.9 19:34:08 10° NNE 19:37:07 23° ENE 19:37:26 23° ENE
STARLINK-1238 3.8 19:34:13 10° W 19:37:10 37° SSW 19:37:59 31° S
BREEZE-M DEB (TANK) 4.4 19:32:48 10° W 19:37:27 29° SW 19:38:39 22° S
Cosmos 468 Rocket 4.1 19:32:22 10° NNW 19:37:29 58° ENE 19:40:10 27° SE
STARLINK-1205 3.8 19:35:10 10° W 19:38:05 36° SSW 19:38:51 31° S
STARLINK-1204 3.8 19:35:37 10° W 19:38:32 36° SSW 19:39:16 31° S
STARLINK-29 3.1 19:35:49 10° SW 19:38:57 50° SSE 19:39:26 45° ESE
CZ-2C R/B 2.5 19:36:20 10° NNE 19:41:32 80° ESE 19:46:45 10° SSW
STARLINK-1236 3.6 19:37:40 10° WNW 19:41:49 75° SSW 19:43:28 35° SE
STARLINK-60 2.9 19:40:36 10° WSW 19:43:53 88° SSE 19:45:10 34° ENE
SPOT 5 3.8 19:43:20 24° E 19:44:25 27° ENE 19:48:04 10° N
Cosmos 1697 Rocket 3.5 19:40:25 10° NNW 19:45:41 37° NE 19:48:23 24° E
Terra 3.1 19:46:44 22° E 19:48:03 25° ENE 19:51:55 10° N
ERS-1 Rocket 3.6 19:47:11 29° ESE 19:49:03 39° ENE 19:53:43 10° N
Cosmos 407 Rocket 4.2 19:44:22 10° SW 19:49:25 55° WNW 19:54:29 10° NNE
Cosmos 676 Rocket 3.9 19:46:24 10° SSW 19:51:42 87° ESE 19:56:58 10° NNE
STARLINK-1269 3.6 19:47:38 10° WNW 19:51:46 67° SSW 19:53:02 41° SE
Iridium 2 3.6 19:50:40 33° S 19:52:16 72° E 19:56:06 10° N
Cosmos 192 4.3 19:50:53 10° NNW 19:55:52 88° WSW 19:58:14 32° SSE
Cosmos-2242 4.1 19:56:38 27° E 19:56:38 27° E 20:00:02 10° NNE
STARLINK-1200 3.7 19:52:36 10° WNW 19:56:43 64° SSW 19:57:48 44° SSE
STARLINK-1192 3.8 19:57:36 10° WNW 20:01:42 60° SSW 20:02:36 47° SSE
SL-16 R/B 4.3 20:01:09 10° N 20:04:43 17° NNE 20:08:17 10° ENE
COSMOS 2455 3.8 19:59:52 10° NW 20:05:28 41° WSW 20:09:32 18° S
SL-08 R/B 4.5 19:59:25 10° N 20:05:33 67° ENE 20:08:28 33° SSE
STARLINK-1201 4.5 20:03:32 10° W 20:06:17 26° SW 20:06:17 26° SW
STARLINK-1244 3.8 20:02:36 10° WNW 20:06:41 57° SSW 20:07:23 49° SSE
Cosmos 1656 3.6 20:03:13 10° NNW 20:08:56 77° ENE 20:11:09 39° SE
MOS 1 Rocket 4.3 20:05:29 10° N 20:10:45 57° WNW 20:16:05 10° SSW
STARLINK-1138 3.8 20:07:35 10° WNW 20:11:38 54° SSW 20:12:10 49° S
Cosmos 1356 Rocket 4.0 20:12:13 41° E 20:12:13 41° E 20:15:54 10° NNE
STPSAT 2 (USA 217) 4.4 20:07:34 10° SSW 20:12:03 84° ESE 20:16:35 10° NNE
Cosmos 2322 Rocket 4.4 20:08:58 10° N 20:12:26 16° NNE 20:15:52 10° ENE
Cosmos 1455 3.1 20:13:23 34° ENE 20:13:23 34° ENE 20:16:08 10° NNE
Cosmos 1954 Rocket 4.3 20:08:52 10° SW 20:14:05 67° WNW 20:19:18 10° NNE
IGS 5A 3.3 20:13:40 54° SSE 20:14:35 85° ENE 20:18:46 10° NNW
FALCON 9 DEB 3.3 20:11:14 10° WSW 20:14:16 63° SW 20:14:16 63° SW
Cosmos 1980 Rocket 3.1 20:10:12 10° NNW 20:15:22 35° NE 20:17:17 28° E
Cosmos 1892 2.7 20:12:28 10° NNW 20:16:22 79° W 20:17:06 57° S
STARLINK-1143 3.9 20:12:34 10° WNW 20:16:36 50° SSW 20:16:57 49° SSW
ATLAS CENTAUR R/B 1.8 20:15:22 10° NNW 20:19:08 42° NE 20:19:27 41° NE
STARLINK-52 4.1 20:16:09 10° WSW 20:18:09 35° WSW 20:18:09 35° WSW
Cosmos 1741 Rocket 4.0 20:18:19 35° S 20:20:25 62° ESE 20:25:42 10° NNE
STARLINK-1241 4.0 20:17:35 10° WNW 20:21:35 47° SSW 20:21:46 47° SSW
Mayak 1.1 20:19:14 10° NE 20:19:48 12° ENE 20:19:48 12° ENE
BREEZE M DEB (TANK) 3.6 20:18:44 10° SW 20:22:38 58° SSE 20:35:03 10° ENE
SPOT 1/Viking Rocket 3.5 20:21:22 42° SSE 20:23:13 90° SSW 20:28:30 10° NNW
CARTOSAT-1 3.5 20:22:53 58° ESE 20:23:20 63° ENE 20:27:38 10° N
Cosmos 1825 2.6 20:20:01 10° N 20:23:21 48° NE 20:23:21 48° NE
CZ-4C R/B 3.2 20:18:45 10° NW 20:25:28 58° NE 20:29:18 31° ESE
ATLAS 5 CENTAUR R/B 2.6 20:21:32 10° WSW 20:25:42 48° NW 20:30:32 10° NE
STARLINK-1239 4.1 20:22:33 10° WNW 20:26:31 44° SSW 20:26:31 44° SSW
Cosmos 2208 Rocket 4.0 20:21:45 10° NNW 20:26:58 71° ENE 20:28:09 52° SE
Cosmos 1763 Rocket 3.6 20:24:16 10° NNW 20:29:26 69° WSW 20:30:58 44° S
Cosmos 2344 4.5 20:22:28 10° NW 20:31:17 62° NE 20:38:33 26° ESE
STARLINK-1240 4.3 20:27:33 10° WNW 20:31:18 41° SW 20:31:18 41° SW
Okean 3 Rocket 3.4 20:28:53 10° N 20:33:19 74° ENE 20:33:36 71° ESE
Resurs 01 Rocket 3.6 20:31:53 12° SW 20:35:03 24° W 20:38:40 10° NW
Cosmos 1766 Rocket 3.5 20:30:43 10° N 20:35:11 65° ENE 20:35:19 65° E
Cosmos 540 Rocket 3.4 20:30:51 10° NNW 20:36:02 73° ENE 20:36:54 59° ESE
STARLINK-1216 4.5 20:32:33 10° WNW 20:36:05 38° SW 20:36:05 38° SW
Cosmos 2360 4.4 20:34:09 10° NNW 20:39:49 61° NE 20:41:02 49° ESE
Iridium 4 Rocket 3.8 20:36:40 10° NNW 20:40:42 46° W 20:41:54 35° SW
USA 234 3.2 20:35:04 10° ENE 20:41:32 60° SE 20:47:59 10° SW
Cosmos 1814 Rocket 4.0 20:36:20 10° NNW 20:41:44 79° ENE 20:42:40 61° SE
Landsat 7 4.4 20:42:03 39° SSW 20:43:26 53° W 20:48:08 10° NNW
Cosmos 2278 3.8 20:39:01 10° NNW 20:44:40 62° ENE 20:45:43 52° ESE
Cosmos 2082 Rocket 3.5 20:49:07 26° ENE 20:49:07 26° ENE 20:52:12 10° NE
RESURS DK-1 2.7 20:47:53 10° NW 20:51:45 59° W 20:51:45 59° W
SL-4 R/B 3.1 20:50:26 10° W 20:52:28 33° WNW 20:52:28 33° WNW
Cosmos 1833 Rocket 2.9 20:56:29 52° E 20:56:29 52° E 21:01:23 10° NE
ASTEX 1 3.6 20:57:33 55° ENE 20:57:33 55° ENE 21:02:16 10° N
USA 32 4.3 20:52:22 10° NNW 20:57:34 63° W 20:58:49 48° SW
Cosmos 2151 3.4 20:54:33 10° NNW 20:58:41 56° W 20:58:42 56° W
Meteor 2-10 Rocket 3.5 20:58:37 59° SSW 20:59:40 84° WNW 21:05:10 10° NNE
Cosmos 1850 Rocket 4.4 21:02:16 26° SW 21:05:08 60° WNW 21:10:17 10° NNE
Cosmos 841 Rocket 3.7 21:02:28 10° NNW 21:07:41 60° WSW 21:08:12 57° SW
COSMOS 2406 3.2 21:08:16 39° SW 21:10:31 79° WNW 21:16:17 10° NNE
Cosmos 1408 4.2 21:08:56 10° NNW 21:11:46 30° WNW 21:11:46 30° WNW
Cosmos 1408 Rocket 3.9 21:11:00 10° NNW 21:14:53 65° NNW 21:14:53 65° NNW
Cosmos 1743 Rocket 4.3 21:12:57 10° N 21:16:28 47° NNE 21:16:28 47° NNE
Nadezhda 3 Rocket 4.0 21:15:55 50° SSW 21:17:39 79° W 21:23:58 10° N
Cosmos 1535 Rocket 4.3 21:14:21 10° N 21:20:33 86° E 21:21:17 71° SSE
SPOT 5 3.6 21:22:33 39° W 21:22:33 39° W 21:26:29 10° NNW
Terra 2.3 21:25:36 52° W 21:25:36 52° W 21:30:11 10° NNW
Cosmos 2369 4.0 21:21:32 10° NW 21:27:01 52° WSW 21:27:19 52° WSW
ERS-1 Rocket 4.1 21:27:10 32° WSW 21:27:55 34° W 21:32:30 10° NNW
Cosmos 1697 Rocket 3.1 21:24:22 10° NW 21:29:50 49° WSW 21:30:07 49° WSW
Cosmos 2221 3.9 21:34:15 32° NNE 21:34:15 32° NNE 21:36:45 10° NNE
Cosmos-2242 4.3 21:33:27 34° W 21:33:47 35° WNW 21:37:48 10° N
Cosmos 1934 Rocket 4.1 21:41:14 10° NNW 21:47:25 62° W 21:48:02 59° WSW
Cosmos 1455 4.5 21:48:16 20° WNW 21:48:20 20° WNW 21:51:16 10° NNW
SL-16 R/B 2.6 21:44:36 10° NNW 21:50:11 53° NE 21:50:11 53° NE
Cosmos 2360 Rocket 3.5 21:47:07 10° NNW 21:52:05 30° NE 21:53:00 29° ENE
Cosmos 2100 Rocket 4.4 21:48:25 10° N 21:54:26 48° ENE 21:54:26 48° ENE
Mayak 0.2 21:53:44 10° N 21:56:22 36° N 21:56:22 36° N
ATLAS CENTAUR R/B 3.8 21:54:36 10° WNW 21:55:38 16° WNW 21:55:38 16° WNW
Cosmos 2322 Rocket 2.7 21:52:21 10° NNW 21:57:48 51° NE 21:57:48 51° NE
Cosmos 1980 Rocket 2.7 21:54:10 10° NW 21:59:03 50° W 21:59:03 50° W
Cosmos 2173 Rocket 4.4 21:55:59 10° N 22:01:44 50° ENE 22:01:44 50° ENE
Sich 1 4.5 21:57:53 10° N 22:00:41 35° NNE 22:00:41 35° NNE
Meteor 2-3 Rocket 4.5 21:57:37 10° NNW 22:03:01 43° W 22:03:11 43° W
Cosmos 1605 Rocket 4.0 21:57:44 10° NNW 22:03:52 70° W 22:03:58 70° WSW
Thor Agena Rocket 3.9 22:03:44 10° NNE 22:07:59 61° NNW 22:07:59 61° NNW
Cosmos 2333 Rocket 4.2 22:06:04 10° NNW 22:10:23 22° NE 22:12:45 17° ENE
ATLAS 5 CENTAUR R/B 4.2 22:07:53 10° WNW 22:11:32 22° N 22:15:37 10° NE
CZ-4C R/B 3.2 22:07:19 10° NW 22:14:15 53° WSW 22:14:28 53° SW
ALOS 2 4.0 22:16:03 37° N 22:16:03 37° N 22:18:49 10° N
Meteor 2-2 Rocket 4.4 22:24:52 67° NNW 22:24:52 67° NNW 22:29:56 10° N
USA 234 3.5 22:18:10 10° ENE 22:24:40 67° NNW 22:31:09 10° W
NOSS 2-1 (E) 4.5 22:21:26 10° NW 22:25:56 67° N 22:25:56 67° N
Cosmos 2082 Rocket 2.7 22:30:55 53° WNW 22:31:06 53° NW 22:36:41 10° NNE
Cosmos 1833 Rocket 4.1 22:38:06 27° W 22:40:05 34° NW 22:45:14 10° NNE
Cosmos 2219 Rocket 3.6 22:44:56 10° NNW 22:49:54 31° NE 22:50:59 29° ENE
Cosmos 1607 4.1 22:55:17 65° NW 22:55:24 66° NW 23:01:40 10° NE
Cosmos 2061 Rocket 4.0 22:55:38 10° N 23:01:24 77° N 23:01:24 77° N
Cosmos 968 Rocket 4.4 23:06:04 45° NW 23:06:04 45° NW 23:10:31 10° NNE
Cosmos 2322 4.2 23:07:09 10° NNW 23:12:24 57° NE 23:12:24 57° NE
Cosmos 1459 Rocket 4.4 23:07:16 10° NNW 23:12:56 55° WNW 23:12:56 55° WNW
COSMOS 2428 3.6 23:09:50 10° NNW 23:15:14 41° NE 23:15:50 40° ENE
SL-16 R/B 4.0 23:17:35 24° E 23:19:49 30° ENE 23:25:05 10° N
Cosmos 2233 Rocket 4.1 23:17:40 10° N 23:23:39 70° NE 23:23:39 70° NE
Cosmos 2016 Rocket 4.3 23:25:58 10° NNW 23:31:34 56° WNW 23:31:34 56° WNW
Cosmos 1725 Rocket 4.2 23:26:25 10° NNW 23:32:04 65° WNW 23:32:04 65° WNW
SL-16 R/B 3.8 23:29:06 10° NW 23:32:03 25° WNW 23:32:03 25° WNW
Cosmos 2360 Rocket 3.0 23:30:56 10° NW 23:34:45 42° NW 23:34:45 42° NW
Cosmos 2322 Rocket 3.8 23:36:45 10° NW 23:39:37 25° WNW 23:39:37 25° WNW
CZ-2D R/B 4.0 23:38:59 10° NE 23:43:03 21° E 23:43:04 21° E
MOS 1-B Rocket 4.3 23:37:02 10° N 23:43:07 65° WNW 23:43:26 64° W
Cosmos 2123 Rocket 4.1 23:45:08 69° NW 23:45:08 69° NW 23:50:55 10° N
SJ 16-02 3.4 23:52:41 22° ENE 23:52:41 22° ENE 23:54:43 10° NE
Cosmos 1464 Rocket 4.5 23:47:29 10° N 23:53:27 50° ENE 23:54:02 48° E
